DLH438 EDDF-KDFW

Flight info

Callsign DLH438
Flight time N/A
Altitude 30000
Route OBOKA3M OBOKA Z29 TORNU DCT MIMVA DCT GETNO/N0486F320 DCT NIBOG DCT ETARI/M084F330 DCT 5630N02000W 5630N03000W 5530N04000W 5330N05000W DCT PELTU/N0482F340 N600B ANATI DCT POLTY Q804 KENLU/N0481F360 Q804 DERLO DCT WWSHR Q29 KLYNE DCT PXV DCT LIT DCT FEWWW SEEVR4
Aircraft A346/H-SDE2E3FGHIJ3J4J5M1RWXY/LB1D1

Departure

Time 2026-04-15 04:33
Airport Frankfurt Main Airport (EDDF)

Arrival

Time N/A
Airport Dallas Fort Worth International Airport (KDFW)
Time Latitude Longitude Altitude Speed Heading
2026-04-15 04:10 50.04594 8.57049 366 ft 0 kts 59°
2026-04-15 04:21 50.04592 8.57046 366 ft 1 kts 59°
2026-04-15 04:21 50.04583 8.57023 373 ft 3 kts 58°
2026-04-15 04:21 50.04573 8.56996 368 ft 3 kts 64°
2026-04-15 04:22 50.04567 8.56971 369 ft 3 kts 84°
2026-04-15 04:22 50.04568 8.56954 370 ft 2 kts 103°
2026-04-15 04:22 50.04573 8.56930 373 ft 3 kts 121°
2026-04-15 04:22 50.04582 8.56914 372 ft 3 kts 149°
2026-04-15 04:23 50.04593 8.56908 369 ft 3 kts 180°
2026-04-15 04:23 50.04604 8.56910 372 ft 1 kts 193°
2026-04-15 04:23 50.04621 8.56916 368 ft 3 kts 196°
2026-04-15 04:23 50.04640 8.56926 367 ft 3 kts 200°
2026-04-15 04:24 50.04659 8.56937 370 ft 3 kts 203°
2026-04-15 04:24 50.04666 8.56942 369 ft 0 kts 203°
2026-04-15 04:26 50.04664 8.56941 369 ft 1 kts 203°
2026-04-15 04:27 50.04639 8.56926 368 ft 6 kts 198°
2026-04-15 04:27 50.04579 8.56900 371 ft 11 kts 194°
2026-04-15 04:27 50.04509 8.56875 367 ft 10 kts 192°
2026-04-15 04:27 50.04435 8.56851 373 ft 11 kts 190°
2026-04-15 04:28 50.04355 8.56830 368 ft 12 kts 190°
2026-04-15 04:28 50.04281 8.56850 369 ft 12 kts 120°
2026-04-15 04:28 50.04295 8.56983 372 ft 13 kts 70°
2026-04-15 04:28 50.04327 8.57119 371 ft 13 kts 70°
2026-04-15 04:29 50.04360 8.57257 374 ft 14 kts 69°
2026-04-15 04:29 50.04396 8.57405 374 ft 15 kts 69°
2026-04-15 04:29 50.04433 8.57561 372 ft 15 kts 70°
2026-04-15 04:29 50.04471 8.57720 377 ft 18 kts 70°
2026-04-15 04:30 50.04515 8.57904 375 ft 18 kts 70°
2026-04-15 04:30 50.04560 8.58093 373 ft 19 kts 70°
2026-04-15 04:30 50.04604 8.58280 379 ft 17 kts 70°
2026-04-15 04:30 50.04644 8.58444 381 ft 11 kts 69°
2026-04-15 04:31 50.04646 8.58552 381 ft 11 kts 139°
2026-04-15 04:31 50.04572 8.58608 381 ft 12 kts 156°
2026-04-15 04:31 50.04518 8.58644 382 ft 7 kts 166°
2026-04-15 04:31 50.04490 8.58606 382 ft 7 kts 249°
2026-04-15 04:32 50.04484 8.58580 381 ft 0 kts 250°
2026-04-15 04:32 50.04478 8.58554 381 ft 16 kts 250°
2026-04-15 04:32 50.04361 8.58063 378 ft 80 kts 249°
2026-04-15 04:33 50.04098 8.56961 373 ft 135 kts 249°
2026-04-15 04:33 50.03709 8.55334 360 ft 182 kts 250°
2026-04-15 04:33 50.03232 8.53358 631 ft 199 kts 250°
2026-04-15 04:33 50.02751 8.51382 1319 ft 196 kts 248°
2026-04-15 04:34 50.01995 8.49643 1919 ft 195 kts 214°
2026-04-15 04:34 50.00777 8.48778 2407 ft 195 kts 192°
2026-04-15 04:34 49.99434 8.48298 2778 ft 201 kts 189°
2026-04-15 04:34 49.98052 8.47813 3225 ft 205 kts 191°
2026-04-15 04:35 49.96664 8.47265 3716 ft 206 kts 193°
2026-04-15 04:35 49.95269 8.46667 4110 ft 212 kts 194°
2026-04-15 04:35 49.93809 8.46016 4368 ft 224 kts 195°
2026-04-15 04:35 49.92275 8.45273 4608 ft 239 kts 204°
2026-04-15 04:36 49.90940 8.43715 4925 ft 249 kts 233°
2026-04-15 04:36 49.90005 8.41435 5495 ft 250 kts 239°
2026-04-15 04:36 49.89138 8.39092 6102 ft 250 kts 242°
2026-04-15 04:36 49.88571 8.36537 6701 ft 252 kts 264°
2026-04-15 04:37 49.88578 8.33771 7069 ft 263 kts 275°
2026-04-15 04:37 49.88761 8.30855 7356 ft 278 kts 275°
2026-04-15 04:37 49.89012 8.27837 7805 ft 285 kts 284°
2026-04-15 04:37 49.89763 8.24978 8383 ft 287 kts 302°
2026-04-15 04:38 49.90924 8.22433 9023 ft 289 kts 307°
2026-04-15 04:38 49.92134 8.19970 9631 ft 292 kts 307°
2026-04-15 04:38 49.93386 8.17469 10211 ft 294 kts 310°
2026-04-15 04:38 49.94787 8.15104 10645 ft 302 kts 316°
2026-04-15 04:39 49.96386 8.12863 10889 ft 316 kts 319°
2026-04-15 04:39 49.98096 8.10593 11138 ft 329 kts 320°
2026-04-15 04:39 49.99878 8.08235 11393 ft 343 kts 319°
2026-04-15 04:39 50.01727 8.05781 11636 ft 356 kts 319°
2026-04-15 04:40 50.03651 8.03216 11878 ft 370 kts 319°
2026-04-15 04:40 50.05631 8.00567 12200 ft 379 kts 319°
2026-04-15 04:40 50.07636 7.97879 12776 ft 382 kts 319°
2026-04-15 04:40 50.09657 7.95166 13388 ft 384 kts 319°
2026-04-15 04:41 50.11666 7.92465 13976 ft 387 kts 319°
2026-04-15 04:41 50.13718 7.89702 14497 ft 390 kts 319°
2026-04-15 04:41 50.15807 7.86883 15024 ft 392 kts 319°
2026-04-15 04:41 50.17876 7.84091 15580 ft 393 kts 319°
2026-04-15 04:42 50.19954 7.81279 16113 ft 395 kts 319°
2026-04-15 04:42 50.22040 7.78456 16636 ft 397 kts 319°
2026-04-15 04:42 50.24163 7.75758 17149 ft 399 kts 324°
2026-04-15 04:42 50.26495 7.73371 17654 ft 401 kts 330°
2026-04-15 04:43 50.28991 7.71369 18175 ft 403 kts 335°
2026-04-15 04:43 50.31561 7.69579 18656 ft 405 kts 336°
2026-04-15 04:43 50.34158 7.67821 19091 ft 407 kts 336°
2026-04-15 04:43 50.36770 7.66051 19528 ft 409 kts 336°
2026-04-15 04:44 50.39388 7.64263 19956 ft 411 kts 336°
2026-04-15 04:44 50.42016 7.62462 20374 ft 413 kts 336°
2026-04-15 04:44 50.44623 7.60669 20797 ft 415 kts 336°
2026-04-15 04:44 50.47279 7.58838 21218 ft 417 kts 336°
2026-04-15 04:45 50.49946 7.56998 21641 ft 420 kts 336°
2026-04-15 04:45 50.52631 7.55131 22054 ft 422 kts 335°
2026-04-15 04:45 50.55270 7.53085 22464 ft 424 kts 332°
2026-04-15 04:45 50.57847 7.50796 22858 ft 426 kts 329°
2026-04-15 04:46 50.60371 7.48298 23249 ft 428 kts 328°
2026-04-15 04:46 50.65365 7.43181 23961 ft 433 kts 327°
2026-04-15 04:46 50.67900 7.40572 24285 ft 435 kts 327°
2026-04-15 04:47 50.70445 7.37952 24632 ft 436 kts 327°
2026-04-15 04:47 50.72846 7.34998 24983 ft 438 kts 317°
2026-04-15 04:47 50.74879 7.31475 25331 ft 440 kts 309°
2026-04-15 04:47 50.76552 7.27416 25680 ft 443 kts 301°
2026-04-15 04:48 50.77995 7.23096 26037 ft 443 kts 299°
2026-04-15 04:48 50.79409 7.18735 26368 ft 445 kts 299°
2026-04-15 04:48 50.80818 7.14366 26701 ft 446 kts 299°
2026-04-15 04:48 50.82231 7.09987 27034 ft 447 kts 299°
2026-04-15 04:49 50.83651 7.05591 27354 ft 448 kts 299°
2026-04-15 04:49 50.85074 7.01194 27662 ft 449 kts 299°
2026-04-15 04:49 50.86482 6.96833 27959 ft 450 kts 299°
2026-04-15 04:49 50.87910 6.92397 28320 ft 450 kts 299°
2026-04-15 04:50 50.89330 6.87978 28751 ft 448 kts 299°
2026-04-15 04:50 50.90743 6.83572 29151 ft 447 kts 299°
2026-04-15 04:50 50.92136 6.79223 29483 ft 448 kts 299°
2026-04-15 04:50 50.93549 6.74810 29800 ft 448 kts 299°
2026-04-15 04:51 50.94960 6.70391 30130 ft 449 kts 299°
2026-04-15 04:51 50.96375 6.65956 30221 ft 450 kts 299°
2026-04-15 04:51 50.99203 6.57080 30221 ft 449 kts 299°
2026-04-15 04:52 51.01995 6.48269 30227 ft 449 kts 298°